Simultaneous Nadir Overpasses (SNOs) Predictions

Prediction of SNOs between LANDSAT-8 and NPP Satellite Orbit:

Table of predicted SNOs for the next 14.0 days since TLE Epoch: 8/9/2015
Index Date (LANDSAT-8) Time (LANDSAT-8) Lat,Lon (LANDSAT-8) SZA (LANDSAT-8 ) Date (NPP) Time (NPP) Lat,Lon (NPP) SZA (NPP ) Distance(km) Time Diff (sec)
1 08/10/2015 12:13:08 70.45, -6.39 54.84 08/10/2015 12:12:38 70.44, -6.32 54.84 2.91 30
2 08/10/2015 13:02:37 -70.39, 161.15 125.21 08/10/2015 13:03:21 -70.40, 161.07 125.20 3.36 44
3 08/13/2015 03:40:05 -70.91, -57.46 123.93 08/13/2015 03:38:54 -70.94, -58.66 123.86 43.73 71
4 08/13/2015 04:29:39 70.43, 109.46 55.62 08/13/2015 04:29:30 70.42, 109.50 55.61 2.18 9
5 08/13/2015 05:19:09 -70.32, -83.07 124.48 08/13/2015 05:20:12 -70.32, -83.03 124.49 1.42 63
6 08/15/2015 19:56:43 -70.51, 57.81 123.49 08/15/2015 19:55:38 -70.50, 57.84 123.50 1.89 65
7 08/15/2015 20:46:10 70.41,-134.69 56.42 08/15/2015 20:46:22 70.40,-134.69 56.41 1.47 12
8 08/15/2015 21:35:47 -69.92, 32.23 124.04 08/15/2015 21:36:57 -69.93, 33.34 124.07 42.37 70
9 08/18/2015 12:13:14 -70.49, 173.65 122.67 08/18/2015 12:12:30 -70.48, 173.64 122.67 0.79 44
10 08/18/2015 13:02:41 70.38, -18.86 57.24 08/18/2015 13:03:14 70.38, -18.89 57.24 1.17 33
11 08/21/2015 03:40:01 71.26, 123.10 58.94 08/21/2015 03:38:54 71.35, 120.64 59.11 88.11 67
12 08/21/2015 04:29:44 -70.45, -70.52 121.84 08/21/2015 04:29:21 -70.47, -70.57 121.81 2.46 23
13 08/21/2015 05:19:11 70.34, 96.96
